STARLINK-36805, 68116

Orbit data source: Space-Track

STARLINK-36805, 68116 is a payload satellite owned by SpaceX/Seattle (US) in SSO that was launched on Sun, 08 Mar 2026 UTC via an FALCON 9 launch vehicle from the Air Force Western Test Range (AFWTR). Payload-class satellites include a variety of spacecraft equipped with specific instruments for various scientific and technological missions. These include communications satellites like Starlink; space stations such as the ISS; scientific satellites like the Hubble; Earth observation satellites from companies like Planet Labs, Umbra, and HawkEye 360; GPS; miniature CubeSats for education and research; and military/defense satellites.

Loading next visibility...
Identifier
68116, 2026-044R
Orbit
SSO
Country
Flag of USUS
Related business
Manufacturer
SpaceX/Seattle
Mission
Operational spacecraft
Bus & Motor
STARLINK V2MO, Unknown motor
Mass
575 kg wet, ~530 kg dry
Launch date (UTC)
2026-03-08 (2 months ago)
Launch vehicle
FALCON 9
Launch site
Air Force Western Test Range (AFWTR)
Object type
Payload
Rocket body
Debris
Shape & HBR
Unknown shape, 17.7 m
Radar Cross Section
RCS unknown

Expand to show TLE details & history
Last TLE update: 10 hours ago

TLE from 10 hours ago
0 STARLINK-36805
1 68116U 26044R   26119.44787928  .00020035  00000-0  62118-3 0  9997
2 68116  97.2848  80.4611 0002204 115.0240 245.1232 15.33447654  9362
Epoch: 2026-04-29T10:44Z
TLE epoch observation values (Epoch: 2026-04-29T10:44:56.769Z)
Latitude
-0.00002°
Longitude
61.81587°
Altitude
469.282 km
Speed
7.631 km/s
True Right ascension
05h 21m 50s
True Declination
0° 00' 00"
Sunlit
Object was in daylight at epoch
Visualization orbit readout
Latitude
Unknown
Longitude
Unknown
Altitude
Unknown
Speed
Unknown
Apparent Right ascension
Unknown
Apparent Declination
Unknown
Sunlit
N/A
Visualization observer readout
Local Sidereal Time
04:40:56
Azimuth
Unknown
Elevation
Unknown
Doppler factor
Unknown
Orbital elements
Apogee altitude
463.986 km
Perigee altitude
460.97 km
Semi-major axis
6,840.615 km
Eccentricity
0.00022
Inclination
97.2848°
RAAN
80.4611°
Arg. of periapsis
115.024°
True anomaly
245.10029°
Mean anomaly
245.1232°
Eccentric anomaly
245.11174°
Mean motion
3.83619 °/min
Orbital period
93.84 mins
BSTAR
0.00062118
Loading maneuver chart data...
Computing Atmospheric mass density...
Loading historical data...
Loading historical data...
Loading historical data...
Loading historical data...
Loading historical data...
Loading historical data...
Loading historical data...

Documentation

Showing up to 5 results
|